Location: Alexander
(41.3564°N, 81.5960°W)
Time: 08:38:54
(UTC+00:00)

Cosmos 2058 Rocket - Pass Details

Date: 24 January 2021
Orbit: 611 x 639 km, 82.5° (Epoch: 02 March)

Event Time Altitude Azimuth Distance (km) Brightness Sun altitude
Rises 23:30:58 0° 347° (NNW) 2,946 6.5 -11.0°
Reaches altitude 10° 23:33:15 10° 344° (NNW) 2,035 5.7 -11.4°
Maximum altitude 23:37:40 57° 266° (W) 755 3.9 -12.2°
Drops below altitude 10° 23:42:04 10° 188° (S) 2,021 6.0 -13.0°
Sets 23:44:19 0° 184° (S) 2,924 6.8 -13.4°
